Location: Unspecified
(0.0000°N, 0.0000°E)
Time: 22:55:31
(UTC+00:00)

LightSail 2 - Visible Passes

Search period start: 19 November 2019 00:00
Search period end: 29 November 2019 00:00
Orbit: 700 x 727 km, 24.0° (Epoch: 17 November)

Date Brightness Start Highest point End Pass type
(mag) Time Alt. Az. Time Alt. Az. Time Alt. Az.
19 Nov 6.0 18:41:33 10° SW 18:46:17 38° SSE 18:49:17 20° E visible
19 Nov 7.6 20:26:51 10° WSW 20:28:16 18° W 20:28:16 18° W visible
20 Nov 7.2 05:20:47 10° NNW 05:24:19 18° NNE 05:27:51 10° ENE visible
20 Nov 5.0 19:28:48 10° WSW 19:33:54 79° NNW 19:34:01 79° N visible
21 Nov 7.3 04:24:06 11° N 04:26:14 13° NNE 04:28:41 10° NE visible
21 Nov 5.2 18:30:53 10° WSW 18:35:59 71° SSE 18:39:45 18° ENE visible
21 Nov 7.4 20:17:06 10° W 20:18:44 18° WNW 20:18:44 18° WNW visible
22 Nov 6.5 05:09:34 10° NW 05:14:05 30° NNE 05:18:39 10° E visible
22 Nov 5.8 19:18:45 10° W 19:23:34 42° NNW 19:24:29 38° N visible
23 Nov 6.8 04:14:34 19° N 04:16:05 22° NNE 04:20:02 10° ENE visible
23 Nov 5.4 18:20:34 10° WSW 18:25:38 63° NNW 18:30:14 12° NE visible
23 Nov 7.5 20:07:55 10° WNW 20:09:13 14° NW 20:09:13 14° NW visible
24 Nov 7.7 03:20:18 12° NE 03:20:18 12° NE 03:21:06 10° ENE visible
24 Nov 5.6 04:59:17 13° NW 05:03:45 54° NNE 05:08:50 10° ESE visible
24 Nov 6.6 19:09:08 10° WNW 19:13:16 24° NNW 19:14:57 21° N visible
25 Nov 6.0 04:05:01 35° N 04:05:47 37° NNE 04:10:33 10° E visible
25 Nov 6.3 18:10:37 10° W 18:15:16 34° NNW 18:19:53 10° NE visible
26 Nov 7.6 03:10:44 16° ENE 03:10:44 16° ENE 03:12:04 10° E visible
26 Nov 5.1 04:49:43 20° WNW 04:53:21 83° SSW 04:58:34 10° ESE visible
26 Nov 7.2 19:00:13 10° NW 19:03:03 15° NNW 19:05:20 11° N visible
27 Nov 5.2 03:55:24 68° NNE 03:55:24 68° NNE 04:00:32 10° ESE visible
28 Nov 7.6 03:01:05 17° E 03:01:05 17° E 03:02:20 10° E visible
28 Nov 5.8 04:40:03 22° W 04:42:57 45° SSW 04:47:53 10° SE visible
